Погода в Георгиевской

Россия / Ставропольский край     44°26′04″N   42°06′24″E
темп.,
°C
ветер,
м/с
пор.,
м/с
влажн.,
%
обл.,
%
осадки,
мм/ч
давл.,
гПа
погр.,
м
8 марта, пн
пн800:00−4зсз11750 0.0 102325
03:00−4зюз117917 0.0 102234
06:00−6ю238420 0.0 102232
09:00−3ююз127410 0.0 1021197
12:00−1зсз22750 0.0 1019672
15:000зюз227429 0.0 1017657
18:00−1ююз228038 0.0 101825
21:00−1ююз347868 0.0 101983
9 марта, вт
вт900:00−2ю238072 0.0 101843
03:00−2ю128049 0.0 101821
06:00−3ююз128037 0.0 101823
09:000ююз237026 0.0 1017243
12:00+2зсз45650 0.0 1017764
15:00+3зсз47650 0.0 10171060
18:000зсз6109879 0.6 1018638
21:00−1з479789 1.2 1021441
10 марта, ср
ср1000:00−2зсз5895100 2.1 1022558
03:00−4з5794100 2.6 1023643
06:00−4з4792100 0.5 1024507
09:00−3з4682100 0.6 1025738
12:00−2зсз3580100 0.1 1024852
15:00−1ссз2374100 0.1 1023743
18:00−2всв1176100 0.0 1023321
21:00−2в3579100 0.0 1023464
11 марта, чт
чт1100:00−3в5875100 0.0 1022614
03:00−4в71079100 0.0 1022609
06:00−5в71190100 0.5 1022689
09:00−5в81288100 1.2 1022756
12:00−4в81286100 0.7 1021870
15:00−4всв81287100 1.3 1020946
18:00−6в81388100 0.6 1021851
21:00−7в91488100 0.9 1022940
12 марта, пт
пт1200:00−8в81390100 0.9 1022941
03:00−9в91490100 1.7 1022915
06:00−10в81390100 0.7 1024857
09:00−9в81285100 0.9 1026860
12:00−7в81182100 0.1 1026915
15:00−7в71082100 0.2 1027912
18:00−8в61186100 0.1 1029707
21:00−9вюв6138867 0.1 1031538